Wind_Speed
19 19 19 20 20 21 21 22 22 22 22 22 23 23 24 25 25 25 25 25 24 23 21 21 25 29 32 35 37 39 39 38 37 39 37 28 29 34 33 33 34 35 36 36 37 37 37 36 34 33 35 37 39 38 36 36 34 34 36 40 42 41 40 36 33 30 28 24 17 15 12 14 18 15 17 16 16 19 18 18 17 16 17 16 16 18 19 18
18 19 20 21 22 22 22 23 23 23 23 22 22 23 23 24 25 25 25 25 26 24 22 21 21 25 29 33 35 37 38 38 37 37 31 26 32 34 30 30 32 33 34 33 34 34 34 33 32 33 35 37 38 36 35 36 35 37 39 42 44 42 38 35 32 28 26 22 15 15 13 14 17 15 15 14 14 17 17 15 13 11 13 15 15 17 18 17
19 21 22 22 22 22 22 22 22 22 22 22 22 22 23 23 24 25 25 26 26 26 24 23 21 22 25 30 34 35 35 35 36 33 28 30 34 30 28 29 30 30 31 31 30 31 32 32 33 35 36 37 37 35 36 36 36 38 39 43 44 39 35 32 29 26 23 20 17 19 15 12 15 16 16 15 13 15 17 14 9 9 10 12 13 15 18 18
21 22 22 23 22 22 21 21 21 20 20 21 21 21 22 22 23 24 25 26 26 26 26 25 24 22 22 26 30 33 32 31 32 30 29 32 31 29 29 28 28 29 29 29 29 30 31 32 35 36 37 38 36 35 37 38 37 38 40 43 40 34 33 30 27 25 22 20 21 23 19 12 14 17 19 19 16 15 17 14 9 9 9 9 11 13 17 19
22 23 22 22 21 21 21 21 21 21 21 21 21 21 21 21 22 23 24 26 26 26 26 26 25 24 23 23 25 29 29 27 28 29 30 31 30 29 28 28 29 29 29 30 30 30 31 33 36 37 39 39 37 38 40 38 37 39 40 41 36 32 32 28 25 25 22 22 25 26 22 17 15 17 20 23 23 20 17 14 9 9 10 8 10 12 15 18
23 23 22 22 21 21 21 21 21 21 22 22 23 23 23 23 22 22 23 25 26 26 26 26 26 26 25 24 24 25 26 23 22 26 30 31 31 30 28 28 29 30 30 31 32 31 32 34 37 39 40 40 39 41 39 37 37 40 40 38 35 33 31 27 25 26 24 24 28 26 18 15 15 17 21 24 26 25 19 14 10 9 10 11 13 16 16 16
23 22 22 22 21 21 21 21 21 22 23 23 24 25 25 25 25 24 23 24 25 26 27 27 27 27 26 26 24 24 25 24 22 23 28 32 33 33 32 30 29 30 31 31 32 33 34 36 39 40 40 40 41 41 38 36 39 41 40 38 34 32 31 28 26 26 26 28 30 25 14 10 13 17 19 18 20 24 22 17 14 11 12 12 14 16 17 18
22 22 21 21 21 21 22 22 23 24 25 25 26 26 27 27 27 26 25 25 24 25 27 27 28 28 28 27 26 27 25 20 22 25 27 31 33 34 35 32 31 30 30 31 31 33 35 37 39 39 40 41 40 40 38 37 40 43 41 37 34 33 31 29 26 27 28 30 30 26 19 14 14 18 18 14 14 16 18 17 15 13 13 10 11 12 11 14
21 21 20 20 21 22 23 24 25 27 27 28 29 29 29 29 29 28 27 26 25 24 26 28 29 28 29 29 28 31 22 14 23 29 28 31 32 33 35 33 31 30 30 31 31 33 36 38 39 39 39 39 38 39 38 38 41 44 40 36 35 34 32 29 29 28 28 30 29 25 23 20 18 21 21 17 14 13 14 15 15 15 14 8 7 8 5 5
20 20 20 20 21 22 23 24 26 28 29 29 30 30 31 31 31 29 28 27 26 25 24 27 29 29 31 30 32 32 18 15 28 32 29 30 31 30 32 34 34 33 32 32 33 35 36 37 37 36 36 36 37 38 38 39 40 39 38 36 35 34 32 28 28 28 27 28 27 24 22 20 21 22 23 20 17 16 15 14 14 15 12 6 5 6 4 6
20 20 20 21 22 22 24 25 26 27 28 28 29 29 30 31 32 31 29 27 25 24 24 26 28 30 31 31 36 29 16 19 29 31 31 32 31 28 29 34 35 35 35 35 35 35 35 35 35 36 36 36 37 36 38 39 35 33 32 33 33 32 32 30 28 26 25 26 24 21 19 20 23 24 23 21 21 21 17 14 13 12 9 5 4 5 4 6
20 21 22 23 24 24 25 25 25 25 26 27 28 28 29 31 31 31 30 27 25 24 24 25 27 31 32 36 38 23 14 21 25 30 35 35 34 29 28 32 35 35 35 36 36 35 35 34 35 39 37 35 36 33 34 35 30 30 29 29 29 28 30 32 31 27 25 26 22 18 19 22 27 28 25 21 20 20 16 15 13 12 10 6 4 4 5 7
21 22 23 24 25 25 24 24 24 25 25 26 27 27 29 30 31 30 29 27 25 23 24 25 27 30 33 39 35 19 18 22 22 32 36 35 35 32 30 31 34 35 36 37 38 37 36 36 38 41 37 34 36 31 29 33 30 30 31 29 28 29 33 32 29 27 25 26 22 18 22 26 28 29 24 19 17 16 15 15 14 14 13 9 5 6 9 10
22 22 23 24 24 23 22 22 23 23 23 24 25 26 27 29 30 29 27 26 24 24 24 24 26 28 34 38 30 21 26 27 25 31 33 32 33 33 31 30 31 34 35 37 37 37 38 39 39 41 38 35 37 32 27 31 33 31 31 32 33 33 35 32 28 28 27 26 23 20 22 24 23 23 19 16 17 17 17 17 16 15 13 11 8 8 12 12
22 22 22 22 21 20 20 21 21 21 22 23 24 24 26 27 28 27 26 24 22 23 23 24 25 27 34 36 28 22 26 28 27 26 26 29 31 31 30 29 29 31 34 35 36 38 38 40 41 43 42 36 35 33 28 29 34 33 31 33 37 36 33 30 29 29 28 25 25 23 23 21 18 17 15 15 18 20 20 18 16 14 13 12 10 10 13 14
22 22 21 20 19 19 21 22 21 21 23 24 23 24 25 25 25 25 24 23 22 22 22 23 23 27 32 30 24 22 22 24 24 23 26 29 29 28 26 28 30 29 32 33 35 37 39 41 43 44 43 37 35 36 30 28 33 36 33 31 33 34 31 28 27 28 25 23 26 26 25 24 21 18 14 14 18 21 21 19 16 15 15 13 12 12 14 15
24 23 21 20 19 20 22 23 23 23 24 24 24 23 24 23 23 23 23 22 22 21 21 21 21 27 29 21 15 15 19 21 22 25 29 29 28 27 26 28 29 29 31 31 34 38 40 42 43 44 45 41 38 35 30 30 36 39 34 28 27 29 30 27 26 26 25 25 27 28 26 25 22 20 17 17 19 21 21 20 17 17 16 15 14 13 14 15
25 25 22 21 20 20 22 23 24 24 24 24 24 22 22 21 20 21 21 21 22 21 20 19 20 25 23 16 13 12 15 19 21 25 28 29 29 27 29 28 26 28 30 31 35 38 40 41 41 42 45 45 42 41 38 35 38 39 31 25 24 24 28 28 25 24 25 25 26 26 26 26 23 19 19 20 20 20 20 20 19 19 18 16 15 15 14 15
27 26 23 22 21 21 22 24 24 25 24 23 23 21 19 19 19 19 20 20 21 19 18 17 20 24 18 12 15 16 15 17 21 24 25 29 32 29 30 28 27 29 31 33 35 37 40 39 38 42 50 54 51 49 45 34 29 32 27 22 22 23 26 28 25 24 23 24 27 27 26 28 27 22 21 22 22 20 19 20 20 19 19 17 16 16 16 16
27 26 24 22 22 21 21 24 24 24 24 22 22 21 18 17 17 18 18 19 19 19 17 16 19 25 19 11 13 14 16 19 22 24 25 28 30 30 30 30 29 32 34 36 36 37 38 38 42 51 55 56 52 47 44 33 23 24 24 20 21 22 24 26 26 24 23 23 27 29 28 29 29 27 24 23 23 22 22 21 21 20 18 18 17 18 18 17
27 26 25 22 21 20 21 23 23 23 23 22 23 23 21 19 18 18 20 19 17 19 20 17 18 21 19 15 12 10 15 21 23 24 26 24 22 26 32 32 33 36 37 36 35 35 36 41 50 53 50 49 49 44 40 36 28 22 21 18 19 23 24 24 25 25 26 25 25 29 33 32 30 29 27 26 24 23 23 21 20 20 19 18 19 19 19 18
26 26 25 23 20 20 20 22 22 22 22 21 22 24 24 22 19 19 22 23 16 15 20 20 20 20 16 16 14 11 16 22 23 25 25 22 19 23 30 34 36 37 36 35 36 36 40 48 50 45 43 44 45 43 39 38 33 24 21 20 19 23 25 24 24 25 27 28 24 27 34 34 31 30 29 28 26 22 21 21 19 19 19 19 20 20 20 20
25 25 25 23 20 20 20 21 21 21 20 20 21 23 24 22 18 17 21 27 23 14 17 19 20 20 16 14 15 15 19 22 24 25 25 21 19 20 25 33 36 35 35 37 40 41 42 45 44 39 40 42 41 41 39 37 35 29 25 24 22 20 24 26 27 26 27 28 25 26 33 34 30 30 29 27 24 23 22 21 20 18 18 18 19 20 21 21
24 24 25 23 20 19 19 20 20 19 18 17 17 19 22 21 18 18 19 26 28 19 13 16 19 19 15 12 14 19 21 22 23 24 27 25 20 20 23 30 35 35 38 39 40 43 35 28 36 40 37 39 39 39 39 38 36 35 31 28 25 21 22 25 26 26 27 26 26 29 26 28 32 32 31 29 25 25 24 22 21 20 18 18 19 21 21 21
23 23 24 23 20 19 19 19 19 18 16 15 15 17 20 21 20 19 19 22 24 18 9 10 15 16 14 11 15 20 21 23 26 24 28 27 21 23 24 26 34 37 41 40 35 39 30 17 29 41 38 38 39 38 41 41 36 36 35 31 27 23 20 24 26 27 28 24 27 31 18 17 31 34 30 31 30 26 25 25 23 21 20 20 21 23 22 22
24 23 23 23 20 18 18 18 17 17 16 15 15 15 18 19 18 16 16 17 15 12 10 5 6 8 10 13 18 19 19 24 27 25 27 29 23 24 23 24 34 37 39 39 30 31 32 21 24 36 39 39 39 39 43 41 37 37 38 33 29 25 22 24 24 22 22 20 27 34 21 12 25 33 30 30 30 29 28 26 24 22 20 21 23 24 23 23
23 22 22 22 21 19 17 17 16 15 16 15 14 14 15 15 13 12 10 9 7 9 12 7 3 4 6 10 16 20 17 18 25 26 28 30 25 23 24 25 32 35 35 33 25 26 31 29 25 31 38 39 39 42 44 42 39 39 38 33 30 28 25 24 22 17 15 16 22 35 35 21 23 34 33 31 32 30 29 27 24 23 20 21 25 24 23 24
23 20 21 21 21 20 17 15 15 15 15 14 13 12 12 11 8 7 5 2 5 9 10 6 3 4 4 5 11 23 19 10 19 28 26 27 26 24 28 28 28 32 31 27 26 26 28 32 28 27 34 40 42 42 41 42 41 39 36 31 29 27 25 23 22 21 19 15 17 34 39 19 16 33 36 32 33 29 28 29 26 24 22 23 25 23 23 25
22 19 19 20 21 21 17 14 13 13 13 13 13 12 10 8 5 3 2 1 5 9 7 4 2 3 5 6 7 17 20 9 14 25 25 24 26 26 28 27 23 26 29 27 25 21 23 30 26 23 31 41 43 39 38 40 39 37 34 30 28 22 21 19 17 23 23 16 17 33 38 17 8 29 40 33 33 31 29 29 26 23 23 24 24 23 24 26
21 18 18 18 19 20 17 13 11 11 12 12 12 11 9 7 4 2 1 2 6 11 8 6 4 4 6 7 6 10 17 15 13 21 27 25 25 26 27 25 21 22 27 28 25 19 20 26 26 24 28 36 39 35 37 36 32 35 37 31 28 22 20 17 17 22 17 12 20 32 41 27 7 22 42 37 32 34 33 28 25 24 23 25 25 24 25 26
21 18 18 18 18 19 16 11 11 10 10 10 10 10 8 7 5 1 1 5 10 11 6 4 6 7 6 5 8 10 15 18 15 17 26 28 24 23 25 23 21 21 23 27 26 22 21 25 30 29 25 31 36 33 35 33 27 34 39 32 24 20 18 16 19 21 10 8 22 31 41 34 15 24 41 40 34 34 31 26 24 26 26 27 27 26 25 26
21 19 18 17 17 18 15 11 11 10 9 9 10 10 8 6 6 6 5 9 8 6 4 2 4 7 8 6 10 15 15 17 20 17 21 25 23 24 27 26 26 23 20 26 29 26 26 29 31 30 25 31 36 31 30 33 32 34 37 31 16 8 9 9 10 10 8 9 17 25 37 28 19 31 40 38 36 33 28 21 19 22 25 26 28 27 26 26
22 19 17 17 15 16 16 12 11 11 10 9 9 10 7 4 4 7 10 10 7 9 12 5 5 7 11 11 12 16 16 17 22 20 19 20 18 24 31 29 30 26 18 27 33 26 25 27 27 29 28 31 37 34 32 36 40 39 38 33 18 7 4 5 5 3 5 11 13 21 30 18 13 27 33 32 31 27 22 20 19 19 19 22 26 27 26 26
22 20 17 16 15 15 14 13 12 12 11 9 9 9 6 5 7 10 12 12 12 15 15 9 7 8 11 14 15 17 17 17 19 19 19 18 14 22 33 31 30 25 14 21 30 23 18 19 25 31 31 31 38 39 36 38 41 43 39 31 22 14 8 4 5 3 4 9 12 17 18 10 10 17 25 27 23 19 19 22 24 21 18 22 25 27 28 29
23 22 18 15 14 14 13 13 14 13 12 11 11 10 9 9 11 13 12 12 14 16 16 15 13 13 13 13 17 20 18 16 15 16 18 18 16 23 35 36 33 27 16 16 25 24 16 17 25 34 31 31 37 39 37 34 34 39 38 29 25 26 19 9 6 9 9 5 8 13 9 9 13 12 20 30 27 24 24 25 27 24 23 26 26 28 30 30
23 23 19 14 14 13 14 14 15 15 14 12 12 14 14 13 14 14 14 15 16 17 19 18 13 12 12 9 15 21 20 16 13 14 17 18 19 25 36 39 34 31 24 19 23 22 15 17 25 31 30 29 32 35 38 34 28 32 37 35 31 29 22 12 5 10 11 5 6 11 8 12 14 10 22 40 37 30 28 27 27 26 27 28 28 28 30 31
23 23 19 14 13 13 13 15 16 16 14 13 14 17 18 18 17 15 16 18 18 19 21 18 13 10 6 5 12 20 19 16 13 14 18 17 17 25 36 38 34 33 28 22 20 18 14 16 23 30 32 30 28 32 37 36 27 27 36 40 33 25 22 17 5 3 6 3 4 9 11 15 14 9 23 42 41 34 30 29 29 29 30 29 27 28 29 30
25 21 18 14 12 11 12 14 15 13 11 14 19 20 21 21 20 18 18 20 21 21 22 18 13 8 2 2 8 15 18 18 16 14 16 16 17 23 32 36 34 35 30 21 18 17 13 13 19 29 32 27 25 31 35 35 30 26 29 34 29 21 23 23 10 1 5 3 2 5 10 16 17 16 26 38 38 35 32 31 32 32 31 29 27 28 29 30
28 21 17 16 13 12 14 14 14 13 13 18 22 21 21 23 23 22 21 21 22 21 17 12 9 5 1 4 7 13 20 21 16 13 14 16 18 19 27 35 35 35 32 24 20 19 11 7 12 26 32 27 27 35 37 36 35 29 23 25 28 23 20 22 16 7 6 4 1 3 3 8 18 21 26 33 34 34 34 34 34 32 29 28 26 28 29 30
29 22 18 18 16 14 15 15 15 15 16 20 23 21 21 24 24 22 19 18 18 15 11 10 8 4 1 5 9 13 21 20 15 15 14 15 17 17 25 36 37 35 33 28 23 17 8 6 8 22 31 28 28 36 41 40 37 33 24 22 30 28 17 15 17 14 10 6 3 4 1 7 19 20 20 28 33 33 32 30 30 29 27 27 26 26 27 28
31 23 20 21 19 15 15 16 17 16 19 22 23 21 20 21 22 21 17 13 12 9 8 10 9 5 2 5 10 14 17 17 15 16 14 15 15 17 29 41 39 31 29 29 27 19 12 10 9 16 28 29 30 34 40 41 35 32 27 19 25 30 20 8 8 13 15 9 6 7 2 9 21 20 17 26 30 29 27 25 25 25 25 27 27 25 25 25
32 25 21 22 21 17 16 16 17 17 19 21 21 20 19 17 18 18 13 6 4 4 5 5 3 3 5 7 11 15 15 14 15 16 15 16 15 15 33 45 38 26 21 25 27 19 12 11 12 15 28 31 30 28 31 37 34 30 26 16 13 23 26 13 4 9 14 10 9 10 3 8 24 26 20 23 25 24 25 23 21 22 24 26 27 25 25 23
33 26 23 22 20 20 20 21 21 20 20 21 20 18 15 13 15 14 8 3 1 4 5 4 3 5 6 6 11 17 12 8 13 16 14 14 14 14 34 45 37 25 18 20 23 17 14 15 12 16 25 28 28 24 24 29 29 27 27 21 11 13 23 20 8 9 14 11 10 9 2 8 26 33 29 27 26 25 25 23 20 22 25 26 26 26 25 24
34 28 25 22 20 23 25 25 27 26 24 24 19 14 11 9 10 8 4 1 1 3 6 5 5 6 5 6 11 14 7 5 9 13 14 14 12 11 28 38 36 28 21 20 18 13 15 16 11 11 13 15 19 18 18 22 26 26 26 26 20 13 17 21 14 9 10 13 15 11 3 8 24 35 38 35 31 28 27 24 22 24 25 26 27 27 26 26
35 30 27 22 19 25 29 29 31 30 27 23 15 10 10 7 6 5 4 4 4 4 6 6 5 6 6 6 9 9 5 6 7 9 12 14 12 8 18 30 34 29 23 19 12 9 15 14 8 8 8 9 11 13 18 23 27 30 28 27 26 18 16 20 19 12 6 10 17 15 10 13 22 33 41 39 34 33 31 29 27 27 26 26 28 29 28 28
34 33 31 24 19 25 32 32 32 31 26 20 13 11 11 8 6 6 5 6 6 5 5 5 6 6 4 1 3 5 5 6 9 8 8 9 9 7 14 29 35 27 19 15 8 7 15 14 6 6 12 18 21 21 25 28 28 30 30 25 23 19 18 19 19 17 12 9 12 15 16 20 24 31 40 41 38 35 33 31 30 30 31 30 30 30 28 27
33 33 32 27 22 26 32 33 32 29 24 17 12 12 12 9 8 8 7 7 6 5 5 6 6 6 4 3 4 4 6 8 12 12 8 6 6 6 16 36 39 27 15 11 7 8 15 14 7 5 10 15 18 19 22 26 25 24 24 20 15 16 21 20 16 17 18 13 9 14 19 22 26 30 35 38 38 36 33 31 30 31 32 32 31 30 29 28
32 32 30 27 25 27 31 33 32 28 23 16 12 11 10 9 10 10 9 9 7 6 6 7 5 5 4 4 5 4 6 9 12 11 7 7 7 3 20 37 35 26 18 12 9 11 15 13 7 7 7 7 7 10 15 19 20 19 20 18 13 14 21 22 14 10 15 16 13 15 18 20 22 26 30 33 35 34 32 30 30 30 30 31 30 29 28 27
31 32 30 26 25 27 29 32 32 29 25 21 16 12 9 8 9 9 9 9 9 8 8 7 5 4 4 5 5 4 4 6 7 6 5 5 5 3 22 36 31 25 24 20 13 13 15 13 5 5 7 6 5 6 12 15 17 19 21 19 14 11 16 21 15 9 11 15 15 17 20 19 18 20 26 30 30 29 29 30 30 30 29 29 27 26 25 24
30 33 32 28 26 26 28 32 34 32 28 24 20 13 8 8 8 8 8 8 8 8 7 6 3 0 4 6 7 5 4 5 6 5 3 7 7 8 21 31 31 24 21 20 18 15 13 12 6 2 5 6 4 6 12 15 17 20 23 21 15 11 13 17 17 13 12 13 15 21 25 24 23 23 27 30 29 28 29 29 28 28 27 26 25 24 23 22
27 30 31 29 28 28 28 30 33 34 31 27 24 17 9 7 7 6 6 6 5 6 5 2 1 2 5 6 9 6 4 6 6 4 1 9 6 15 17 20 25 23 16 15 18 17 12 9 5 1 3 4 4 5 7 12 17 21 23 23 19 14 13 16 19 18 15 13 19 28 29 26 28 30 31 31 30 28 26 26 25 25 24 24 24 23 22 20
24 25 27 28 28 29 29 29 31 33 31 29 27 20 10 7 5 3 4 5 4 4 4 1 4 3 1 4 9 6 4 5 6 7 3 7 9 21 17 14 19 20 19 18 16 14 12 9 4 1 3 4 5 7 5 5 10 16 21 24 22 19 16 15 18 18 16 16 20 27 26 23 24 29 31 29 27 26 24 22 22 22 22 22 22 21 19 19
Wind_Direction
313 313 312 312 311 310 308 306 304 301 298 295 293 290 288 286 283 280 278 277 277 276 275 269 261 256 254 253 251 249 247 245 243 244 246 246 244 243 240 240 240 238 237 235 234 234 232 232 230 228 229 232 234 234 233 234 232 228 228 230 232 233 238 243 248 252 254 257 252 233 242 277 291 276 241 234 237 246 255 255 257 261 263 267 268 270 275 277
317 316 315 314 312 311 309 307 306 304 301 299 296 294 291 290 288 285 281 278 277 276 274 271 266 259 254 253 252 249 247 245 244 244 245 243 241 241 239 237 238 237 235 233 231 231 228 226 223 221 223 226 229 227 225 227 224 225 228 230 233 237 243 249 251 250 248 247 236 224 239 274 284 272 238 225 227 237 249 254 262 274 275 272 273 275 277 276
316 315 314 313 311 310 308 306 305 303 302 300 298 296 293 291 289 287 284 281 278 276 274 271 268 263 258 254 253 251 248 245 244 244 241 239 239 238 236 233 233 234 232 230 228 227 224 219 216 216 217 220 223 220 219 221 220 224 227 229 236 241 245 248 246 242 240 237 223 222 241 272 276 264 239 224 227 235 243 251 263 283 292 292 295 294 286 276
315 313 313 311 310 309 308 307 306 304 303 301 299 297 295 293 290 288 286 283 280 276 274 271 267 265 263 258 255 253 250 247 244 241 236 235 236 234 232 230 228 228 227 224 222 222 220 213 212 213 213 214 216 214 216 217 217 220 224 231 238 242 242 242 240 236 233 226 219 228 241 261 272 261 239 230 235 237 242 250 253 261 280 301 305 295 280 266
314 314 313 312 311 310 309 309 308 308 307 306 304 301 299 295 292 289 286 284 281 278 274 271 267 264 264 263 259 255 250 248 244 237 233 232 232 230 229 226 224 223 221 219 216 215 214 211 209 209 211 211 208 210 214 214 215 219 225 233 237 238 239 239 235 230 225 219 221 234 248 266 271 255 243 241 245 248 253 260 261 261 269 284 293 281 254 231
314 314 314 314 314 313 313 312 311 311 309 309 308 306 304 300 296 291 287 284 281 279 276 271 267 263 262 262 261 256 247 241 237 232 229 228 226 223 222 221 221 220 217 215 212 210 209 208 208 207 209 208 206 209 212 211 212 219 226 231 232 233 236 235 229 225 221 216 222 236 254 268 255 240 246 245 241 245 254 269 281 278 279 285 294 291 275 246
316 316 316 316 316 316 317 316 316 315 313 312 310 308 306 303 301 296 290 285 280 279 276 272 268 262 259 258 259 257 247 236 230 227 226 225 223 219 216 213 214 216 214 213 211 209 206 205 207 206 207 207 207 209 208 206 210 218 223 226 228 231 233 233 228 223 219 216 225 237 240 233 230 232 238 231 226 234 243 263 281 286 292 296 301 301 304 301
317 317 317 317 318 318 319 318 318 317 317 315 313 311 307 304 302 299 295 288 282 277 274 272 268 263 258 255 255 253 249 238 232 230 226 224 221 218 215 209 207 210 210 210 210 210 206 205 206 205 207 207 206 207 204 204 210 216 220 221 224 228 230 231 229 225 221 217 224 235 230 220 238 247 240 221 211 224 234 252 269 280 292 299 316 318 317 316
318 318 318 319 319 319 318 318 318 317 316 315 313 311 308 305 302 298 296 290 285 277 272 270 266 264 259 255 252 250 247 234 228 226 223 223 218 214 214 209 205 205 206 205 206 208 206 205 205 204 207 207 206 206 201 204 211 215 219 218 220 225 227 229 230 228 223 219 224 236 236 238 256 257 249 238 228 235 241 247 257 272 287 298 325 327 302 284
318 318 318 317 317 317 317 317 316 315 314 313 311 309 305 303 300 298 294 290 286 278 271 267 265 263 259 255 252 248 239 228 227 220 217 221 218 212 212 211 207 202 202 201 202 206 206 204 203 203 207 206 206 205 200 205 212 214 218 219 218 221 224 224 229 232 228 224 228 237 240 248 255 247 241 241 241 251 256 256 263 274 283 291 306 315 271 220
318 317 316 315 315 315 316 316 316 315 313 312 310 306 302 298 296 295 293 289 283 278 271 265 263 261 258 255 251 245 231 233 231 220 216 219 219 213 209 211 208 203 200 199 200 203 204 202 199 200 204 204 203 203 201 204 211 213 216 223 223 221 222 219 223 230 231 231 229 236 247 250 244 240 241 245 250 257 264 268 275 280 276 267 288 303 251 219
316 316 315 314 315 316 317 317 317 317 315 314 311 306 300 294 292 291 291 288 281 274 267 262 260 258 258 253 249 241 221 233 231 221 219 218 218 213 208 209 208 204 201 199 198 199 199 197 197 199 201 202 200 201 202 202 208 211 210 220 223 225 226 219 219 224 231 233 225 232 249 240 235 243 250 250 252 258 265 270 272 272 263 254 274 275 235 226
316 316 315 314 315 316 318 319 320 320 320 319 315 310 301 294 290 288 288 287 281 272 263 259 256 256 257 251 246 234 219 227 226 222 221 218 217 213 208 207 206 205 202 200 197 196 194 191 196 199 198 200 198 198 202 200 204 209 208 217 222 227 229 220 219 226 231 228 220 231 239 230 232 243 249 248 248 255 262 265 265 263 253 237 239 258 248 237
318 316 314 314 315 317 318 320 321 322 324 324 320 312 304 297 293 291 289 286 281 271 262 257 254 254 254 249 245 235 227 225 225 226 223 219 218 214 210 206 206 207 204 201 197 194 192 188 193 197 197 199 198 197 199 197 203 207 209 218 223 230 230 219 215 225 229 223 220 231 232 226 231 238 243 244 242 246 252 255 258 256 242 223 222 246 258 250
321 317 315 315 316 318 319 321 324 326 327 328 323 315 308 300 294 293 290 287 280 271 263 257 254 253 252 249 246 239 233 230 230 232 228 224 221 215 211 207 207 209 207 202 197 194 190 189 192 194 195 197 196 197 196 194 201 205 209 217 222 229 232 222 216 221 225 221 218 227 230 230 230 230 233 233 232 237 243 249 253 244 224 215 222 240 257 258
325 321 319 318 319 321 323 326 326 328 330 331 328 320 315 304 292 291 291 288 282 273 265 260 255 254 253 252 250 242 236 234 228 224 222 224 221 212 209 208 206 208 210 204 198 194 190 190 193 194 194 194 195 198 197 200 203 204 209 216 219 225 230 227 221 218 220 221 219 222 230 234 229 223 223 221 228 234 238 244 240 226 216 214 221 233 250 257
329 326 325 322 322 323 328 330 328 328 330 333 333 327 323 311 294 290 290 287 282 276 269 262 258 257 252 249 245 230 227 230 220 212 214 218 220 209 203 205 202 203 207 203 198 194 190 192 194 195 194 194 197 198 201 212 208 202 208 216 217 221 223 225 222 215 215 219 221 222 228 236 235 229 226 224 229 234 237 238 229 219 216 216 221 230 244 249
331 330 329 326 324 326 331 331 329 328 329 332 333 329 323 313 300 291 287 283 279 276 270 261 256 256 252 242 227 209 215 221 212 206 206 211 217 209 201 200 197 199 203 200 198 193 191 194 195 196 197 196 198 199 203 210 206 201 205 212 216 219 220 220 218 211 209 212 217 219 224 233 237 232 227 227 228 230 233 231 225 222 221 222 224 229 236 237
332 331 330 327 325 327 331 330 330 329 327 327 327 324 318 310 304 296 289 284 277 272 267 260 251 249 249 234 214 211 210 200 193 193 196 205 213 209 201 199 196 197 199 198 197 193 191 193 195 198 199 198 197 200 203 204 201 203 205 207 212 218 219 218 215 207 203 209 215 216 219 226 230 227 223 223 222 221 224 223 220 221 223 224 225 229 232 230
329 331 330 327 324 326 328 327 330 330 326 323 319 317 314 308 306 300 291 283 275 269 261 256 255 252 247 222 200 212 206 183 178 178 183 197 209 210 202 196 197 198 198 197 195 193 192 194 198 200 200 199 198 201 205 203 195 200 204 207 213 216 217 216 213 206 200 208 216 216 220 225 226 226 224 220 217 215 214 213 215 218 221 225 230 233 230 222
325 328 328 325 323 323 323 324 328 329 327 323 316 315 315 311 311 306 296 282 265 263 260 253 258 258 244 213 197 213 205 186 175 170 173 182 194 204 200 194 194 197 198 196 193 192 194 200 204 203 201 200 200 203 207 205 196 193 198 208 217 217 213 208 209 208 202 208 216 215 219 225 227 227 223 219 219 217 214 211 213 219 223 228 233 232 226 215
319 323 325 325 323 320 319 320 324 327 328 324 316 315 315 313 311 306 300 293 278 262 260 252 249 256 244 210 196 207 206 188 172 165 164 167 179 192 194 193 194 194 195 194 191 192 200 207 207 203 202 201 201 205 208 206 201 196 197 210 220 217 211 205 204 205 206 212 219 219 220 223 225 223 220 217 219 217 213 214 219 226 229 230 231 228 223 214
314 319 322 324 323 318 317 317 320 325 329 325 316 314 315 314 311 304 298 296 294 281 264 259 252 252 243 209 195 208 208 187 173 165 157 163 184 187 186 194 194 190 191 191 190 193 203 212 208 202 202 200 201 206 207 205 206 202 202 215 219 208 208 209 202 199 208 214 220 226 221 215 213 212 208 206 209 210 207 210 217 224 230 233 233 228 222 216
313 316 319 323 321 316 315 315 316 324 329 323 313 313 316 319 317 309 301 296 298 304 286 266 257 245 229 210 207 216 213 193 177 169 160 165 185 187 186 193 192 189 193 193 192 196 204 214 208 202 201 200 202 206 206 206 207 204 205 215 214 201 204 210 201 198 209 218 225 225 210 197 198 201 200 196 196 204 205 204 206 211 220 226 228 224 219 218
315 313 315 320 320 314 314 313 315 323 326 316 310 317 321 323 321 312 306 300 304 323 321 263 250 240 227 221 218 217 221 206 181 166 166 170 180 188 189 191 192 193 195 193 195 202 205 208 206 202 199 200 202 205 206 204 206 207 207 210 208 201 200 203 202 205 213 219 223 221 197 177 195 195 194 194 193 200 205 202 203 211 217 217 219 219 216 216
316 310 311 317 317 313 312 312 315 320 319 314 312 320 323 322 321 315 308 304 311 344 358 309 245 240 226 214 211 211 227 218 187 168 173 174 174 186 192 193 194 196 194 192 198 209 208 203 206 203 199 200 201 205 206 202 206 212 208 204 202 203 203 206 213 217 218 218 221 223 213 181 190 191 191 195 195 198 200 199 205 216 219 215 215 217 218 216
317 309 307 312 314 312 311 310 313 316 314 314 313 317 324 323 322 320 316 311 316 346 351 334 216 211 220 212 209 206 220 222 195 182 178 173 171 184 195 196 196 197 192 190 202 212 206 203 208 205 200 201 202 205 205 200 208 213 203 198 202 208 210 214 229 232 224 229 229 223 216 195 185 193 195 197 198 196 195 196 206 214 214 214 214 214 216 215
318 309 303 307 311 312 312 311 312 314 312 314 314 316 324 330 330 328 331 340 322 334 342 330 205 195 248 266 227 209 211 214 194 191 180 172 174 184 196 196 196 198 190 190 207 212 203 201 205 205 201 204 205 205 202 200 210 210 198 199 208 214 222 229 243 241 234 245 231 213 208 196 181 192 192 191 194 192 193 203 211 211 209 212 212 210 211 210
320 311 302 303 309 312 313 311 308 309 310 314 314 314 325 333 333 330 332 253 308 327 329 306 238 214 256 271 246 218 215 203 180 186 182 178 180 185 195 194 193 198 192 195 210 213 208 202 201 206 207 208 207 203 198 201 211 206 197 207 215 221 236 240 248 247 246 253 231 209 201 189 165 188 186 185 192 194 197 207 213 210 208 212 211 208 209 208
319 313 303 301 306 310 312 309 305 305 306 312 313 311 322 330 323 342 2 259 306 326 311 266 231 226 244 245 241 223 214 203 173 175 183 186 187 191 194 190 192 197 196 204 211 206 203 201 200 209 214 210 205 200 198 203 211 205 203 216 225 232 244 244 246 250 252 246 238 221 200 192 181 186 190 194 201 202 202 206 208 208 210 212 209 207 209 211
321 316 307 302 303 307 310 305 303 304 302 307 309 306 315 321 306 266 171 298 314 329 313 220 203 213 222 233 224 216 215 206 186 178 187 189 194 200 196 191 193 194 202 211 207 193 190 196 202 210 214 206 200 201 204 206 206 203 209 221 231 236 243 251 250 246 241 232 245 229 201 197 198 189 196 204 208 208 208 212 211 211 215 213 207 207 212 213
327 323 313 307 303 304 306 304 301 301 297 300 304 305 313 317 289 244 275 311 313 334 353 163 198 220 218 216 207 213 226 213 199 200 195 191 201 205 195 192 189 187 203 207 198 195 195 195 200 207 210 202 199 202 205 204 200 199 210 220 221 214 222 241 245 235 216 229 248 217 195 200 209 203 205 204 205 211 215 220 223 220 219 213 207 208 210 210
338 332 320 312 306 302 304 306 300 299 301 300 299 302 304 295 275 269 291 306 291 309 328 308 220 220 222 222 207 209 224 216 205 210 203 197 211 208 197 194 190 188 199 198 196 203 202 200 205 209 210 204 201 201 198 198 198 198 207 213 205 163 160 213 218 241 225 225 237 206 192 198 209 208 211 205 205 211 211 215 226 230 226 216 211 209 207 205
347 341 327 317 310 303 304 304 300 305 307 300 294 294 286 263 277 290 294 297 293 302 316 308 261 244 237 231 215 206 214 217 212 215 211 207 221 214 203 200 197 195 193 192 200 207 205 208 209 205 206 204 203 202 196 195 199 201 206 213 211 197 188 205 202 201 204 207 216 204 194 190 187 200 213 212 206 199 198 209 217 223 224 218 215 209 204 202
350 348 337 326 318 308 305 303 303 306 300 295 293 282 268 264 279 297 301 297 298 301 307 310 297 283 274 245 215 207 212 214 210 217 218 212 215 211 203 200 197 195 188 189 201 205 214 223 204 197 203 205 203 203 198 197 203 207 209 214 217 210 208 226 224 199 190 169 192 196 179 173 185 196 204 203 199 192 197 205 209 213 214 214 215 209 204 203
349 351 345 335 329 321 312 306 303 300 291 289 288 279 278 284 291 300 301 296 298 303 306 315 316 294 285 252 207 200 208 210 201 213 218 211 213 208 202 200 197 193 188 187 194 195 210 222 202 195 201 206 205 202 199 201 204 205 207 214 216 211 212 223 210 193 188 148 180 190 148 153 178 184 188 193 195 195 196 199 203 208 209 210 213 209 204 204
350 350 350 343 337 330 318 308 302 294 286 280 281 287 295 303 310 310 300 294 294 300 304 312 321 306 283 234 194 188 200 203 189 204 210 207 217 211 204 205 202 194 185 179 187 191 203 212 201 196 199 203 205 200 201 207 207 202 207 213 212 210 224 234 221 168 176 154 197 186 154 158 166 159 181 191 196 195 193 194 198 204 206 208 209 207 206 208
352 350 352 349 343 337 322 309 299 286 277 273 277 290 302 308 318 318 306 298 293 296 302 303 307 306 281 186 178 178 191 188 179 202 207 202 218 213 205 207 204 192 183 179 185 189 205 216 204 200 198 197 198 198 203 209 210 210 211 212 208 205 223 232 236 188 159 172 259 180 165 175 179 173 177 188 194 191 188 191 196 202 204 206 205 204 207 210
354 352 353 353 350 344 332 316 300 283 271 270 275 288 303 308 314 315 311 307 301 299 302 298 299 305 174 138 144 173 189 183 179 203 207 205 216 211 205 206 200 187 183 189 190 182 194 227 205 200 199 195 194 198 204 206 206 213 218 214 210 209 218 222 228 230 172 164 223 172 171 193 193 191 182 181 185 183 183 189 196 199 202 204 203 202 205 209
355 353 353 355 351 344 338 324 305 286 271 274 285 298 308 310 314 317 319 317 309 300 293 287 285 290 236 148 136 164 189 192 192 201 208 214 215 211 206 201 193 186 185 194 202 200 215 256 220 198 197 200 199 199 204 203 200 206 211 206 204 206 210 212 221 221 186 158 146 154 245 211 195 202 199 184 180 181 186 191 194 198 203 204 203 201 202 205
358 356 355 356 351 345 340 326 310 295 285 290 301 310 316 317 317 322 328 323 313 302 286 279 269 261 220 143 139 157 186 205 208 207 217 222 218 213 200 191 187 191 196 205 213 215 222 253 254 195 187 197 203 202 204 203 202 206 208 204 201 204 203 191 209 209 189 180 173 158 194 209 191 194 200 189 183 186 193 196 193 195 201 204 202 201 201 202
359 359 359 355 351 352 350 337 325 316 310 313 316 321 328 325 317 325 337 327 313 331 315 295 270 203 155 133 142 163 188 212 211 210 216 220 233 219 190 186 188 194 201 210 213 210 213 254 267 204 191 199 203 204 207 207 210 215 214 208 201 207 210 204 182 189 186 190 187 171 160 193 185 184 187 192 193 193 195 196 195 194 197 200 200 200 202 204
0 1 1 356 355 1 359 351 344 340 339 341 340 341 346 336 324 334 349 316 288 26 18 22 83 125 129 120 146 169 194 225 208 212 224 230 249 218 187 190 197 193 190 205 211 213 222 244 246 197 191 199 200 202 210 211 215 222 221 214 204 209 216 216 208 186 188 188 179 173 164 178 182 184 188 194 198 195 192 194 198 196 195 198 200 200 202 204
360 3 4 1 4 7 4 358 354 355 357 357 354 359 5 347 336 350 16 10 41 60 46 58 106 122 120 138 162 174 208 268 222 224 238 244 253 208 187 198 203 194 187 193 199 208 216 225 220 174 165 185 196 202 206 207 215 223 220 214 213 221 222 217 213 205 201 196 185 179 179 178 183 187 190 193 194 192 193 197 201 201 197 197 200 202 202 204
359 3 5 6 9 7 6 4 2 3 4 2 5 18 20 8 7 29 47 39 43 69 69 80 119 128 126 157 183 196 229 284 269 244 238 245 254 217 192 203 201 188 178 177 179 201 211 216 215 179 159 168 187 199 198 199 208 215 214 210 209 219 228 218 212 211 213 204 197 191 175 171 181 189 193 195 194 193 195 199 203 206 205 203 203 204 204 204
1 3 3 7 12 9 9 9 7 7 6 5 12 27 25 23 39 51 46 34 42 66 79 94 116 108 93 109 255 241 227 265 280 263 244 250 262 246 203 196 190 177 170 177 185 220 216 215 226 198 188 193 199 202 200 199 202 206 208 205 203 217 233 223 212 215 221 220 214 208 193 177 177 187 194 195 195 196 198 200 204 207 209 209 208 208 206 205
3 5 3 6 10 9 11 13 12 12 11 7 13 26 29 34 50 56 45 37 48 73 91 102 105 87 57 358 311 266 228 238 246 246 258 275 290 272 199 189 185 175 172 188 201 226 221 215 224 204 179 189 202 206 205 206 207 205 204 204 210 231 234 221 211 220 228 233 221 202 198 189 181 185 192 194 196 200 201 202 204 207 209 211 211 210 208 207
3 8 8 8 10 10 11 14 17 19 19 16 15 22 33 45 49 43 39 48 62 81 98 104 96 68 35 340 308 269 232 232 229 232 267 297 312 272 184 185 185 180 184 199 207 220 223 217 227 229 188 155 170 200 206 207 209 208 206 211 227 238 227 217 217 227 230 235 224 195 193 196 189 186 190 193 196 200 201 201 203 205 208 211 212 212 212 213
2 9 12 13 16 15 13 14 20 27 30 29 26 21 19 31 41 40 46 64 74 78 86 85 79 67 10 309 278 259 244 248 245 245 281 322 349 168 182 187 189 191 204 218 215 210 217 217 237 251 203 151 120 193 204 200 207 213 212 216 229 236 219 212 218 232 231 236 230 203 193 194 190 188 189 191 193 197 199 202 205 207 209 211 213 215 217 220
3 6 8 12 18 22 19 18 22 28 33 33 31 26 10 11 31 46 56 75 81 69 68 64 70 80 301 273 240 245 250 255 278 275 300 16 50 138 179 193 198 202 212 217 204 197 212 225 244 263 183 158 133 186 198 198 204 210 210 213 224 234 221 213 220 235 244 242 219 196 190 187 182 179 180 184 189 195 201 206 210 212 214 215 218 220 221 222
5 5 4 7 16 23 23 23 26 29 31 31 29 26 18 13 25 47 72 107 103 66 73 76 23 290 289 255 225 225 227 238 257 232 337 17 73 145 159 186 199 198 197 198 197 199 212 228 237 225 174 168 149 157 176 194 203 207 212 216 222 227 222 219 224 234 249 239 199 185 186 185 180 176 177 183 190 197 204 211 215 218 219 221 224 226 228 231
5 7 6 6 14 21 22 24 30 32 34 34 30 27 29 36 42 62 103 133 120 83 119 117 12 17 323 217 208 211 226 223 198 172 91 39 139 161 159 176 195 197 195 196 198 197 202 212 218 178 152 146 157 167 153 164 195 210 218 220 224 225 218 218 226 234 244 232 199 187 188 184 177 179 181 184 193 200 207 216 222 222 221 224 229 233 240 246
Height
3088 3087 3085 3084 3083 3082 3081 3080 3079 3079 3078 3077 3077 3076 3075 3074 3074 3074 3073 3073 3073 3073 3074 3074 3074 3074 3074 3073 3074 3075 3077 3079 3081 3081 3084 3091 3092 3090 3093 3095 3097 3099 3101 3105 3107 3109 3114 3117 3121 3124 3126 3127 3128 3132 3134 3135 3138 3138 3137 3134 3132 3134 3137 3141 3145 3147 3149 3152 3155 3155 3156 3156 3156 3157 3157 3157 3155 3153 3153 3151 3152 3153 3153 3153 3153 3152 3151 3152
3085 3084 3083 3082 3081 3080 3079 3078 3077 3076 3075 3074 3074 3073 3072 3072 3071 3071 3070 3070 3070 3070 3071 3071 3071 3070 3070 3069 3069 3070 3072 3075 3077 3078 3084 3087 3085 3085 3090 3093 3093 3095 3098 3101 3104 3106 3110 3114 3117 3119 3120 3122 3124 3128 3130 3131 3133 3132 3132 3130 3127 3131 3136 3140 3143 3146 3148 3149 3152 3153 3154 3155 3156 3156 3156 3155 3153 3152 3151 3151 3151 3151 3151 3151 3151 3151 3151 3152
3084 3083 3082 3080 3079 3078 3077 3076 3075 3074 3073 3072 3071 3070 3069 3069 3068 3068 3067 3067 3067 3067 3067 3067 3067 3067 3066 3065 3065 3066 3068 3071 3073 3077 3081 3081 3079 3083 3086 3088 3090 3092 3094 3097 3101 3103 3106 3110 3112 3113 3115 3117 3120 3124 3125 3127 3128 3128 3128 3125 3125 3131 3136 3139 3141 3144 3146 3148 3150 3150 3152 3154 3155 3155 3154 3153 3151 3150 3150 3150 3150 3150 3150 3150 3150 3151 3151 3152
3083 3081 3080 3079 3077 3076 3075 3074 3073 3072 3071 3070 3069 3068 3067 3066 3066 3065 3064 3064 3064 3064 3064 3064 3064 3064 3063 3062 3062 3063 3065 3068 3070 3074 3076 3075 3076 3080 3082 3085 3087 3088 3091 3094 3097 3099 3102 3105 3107 3108 3110 3113 3117 3120 3120 3122 3124 3124 3124 3121 3125 3132 3133 3136 3139 3141 3144 3146 3147 3147 3149 3151 3153 3153 3152 3151 3149 3148 3148 3148 3149 3149 3149 3149 3150 3151 3151 3151
3081 3079 3078 3077 3075 3074 3073 3072 3071 3070 3069 3068 3067 3066 3065 3064 3063 3062 3061 3061 3060 3060 3060 3060 3061 3061 3060 3060 3059 3060 3062 3064 3066 3068 3070 3070 3073 3076 3078 3081 3083 3084 3087 3090 3092 3095 3098 3101 3103 3104 3106 3108 3112 3114 3115 3118 3121 3121 3120 3121 3126 3130 3130 3134 3138 3139 3142 3144 3144 3145 3147 3149 3150 3150 3149 3149 3147 3147 3146 3147 3148 3148 3149 3149 3149 3149 3149 3150
3079 3077 3076 3074 3073 3072 3071 3069 3068 3067 3066 3065 3064 3063 3062 3061 3061 3060 3059 3058 3057 3057 3057 3057 3057 3057 3057 3057 3056 3057 3059 3061 3062 3063 3064 3066 3067 3070 3073 3076 3079 3081 3083 3086 3088 3091 3094 3097 3098 3100 3101 3105 3108 3109 3112 3117 3118 3117 3117 3120 3124 3127 3128 3132 3135 3137 3139 3141 3141 3143 3146 3147 3147 3147 3146 3146 3145 3145 3145 3145 3146 3147 3148 3148 3148 3148 3148 3150
3077 3075 3074 3072 3071 3069 3068 3067 3066 3064 3063 3062 3061 3060 3059 3058 3057 3056 3056 3055 3054 3054 3053 3053 3053 3053 3054 3054 3054 3053 3055 3057 3058 3059 3060 3061 3062 3065 3067 3070 3074 3076 3079 3082 3085 3087 3091 3093 3094 3096 3099 3102 3104 3106 3111 3115 3115 3114 3115 3118 3121 3124 3126 3129 3132 3134 3136 3137 3138 3141 3144 3145 3144 3143 3143 3142 3143 3144 3143 3143 3144 3144 3146 3146 3147 3147 3147 3148
3075 3073 3072 3070 3069 3067 3066 3065 3063 3062 3060 3059 3058 3057 3055 3054 3054 3052 3052 3051 3051 3051 3050 3050 3049 3050 3050 3050 3050 3049 3051 3056 3057 3057 3058 3058 3059 3061 3063 3065 3069 3072 3076 3079 3082 3085 3088 3089 3091 3094 3096 3099 3102 3105 3109 3113 3112 3110 3112 3116 3120 3122 3124 3127 3130 3131 3133 3135 3136 3139 3141 3142 3142 3141 3140 3140 3141 3142 3143 3143 3143 3143 3144 3145 3146 3147 3147 3148
3073 3072 3071 3069 3068 3066 3065 3063 3061 3060 3058 3056 3055 3053 3052 3050 3050 3049 3048 3047 3048 3047 3047 3046 3045 3046 3046 3046 3046 3045 3051 3055 3053 3052 3054 3054 3056 3058 3061 3064 3066 3069 3073 3076 3080 3082 3084 3086 3089 3092 3094 3098 3101 3103 3107 3109 3107 3107 3110 3115 3118 3119 3122 3125 3126 3128 3130 3132 3134 3137 3138 3139 3139 3139 3139 3139 3140 3141 3142 3142 3142 3143 3143 3144 3146 3146 3147 3149
3072 3071 3070 3068 3067 3065 3063 3062 3060 3058 3056 3054 3052 3051 3049 3047 3046 3045 3044 3044 3043 3043 3044 3043 3042 3042 3042 3042 3041 3042 3050 3052 3047 3048 3051 3053 3054 3057 3060 3062 3063 3065 3069 3072 3075 3077 3081 3084 3089 3092 3094 3097 3099 3101 3104 3104 3104 3107 3111 3114 3115 3117 3120 3122 3123 3125 3128 3130 3132 3134 3136 3137 3137 3137 3137 3138 3139 3139 3140 3141 3141 3142 3142 3144 3145 3145 3147 3147
3071 3070 3068 3067 3065 3063 3061 3059 3058 3056 3054 3052 3050 3048 3046 3044 3043 3041 3040 3040 3039 3039 3040 3039 3039 3038 3038 3038 3036 3040 3049 3047 3044 3047 3049 3051 3053 3056 3058 3059 3060 3061 3064 3068 3071 3075 3079 3084 3088 3091 3092 3094 3096 3099 3101 3101 3104 3108 3110 3112 3113 3115 3117 3119 3120 3122 3126 3127 3129 3132 3133 3135 3135 3134 3135 3137 3138 3138 3139 3139 3139 3140 3141 3143 3144 3145 3146 3146
3070 3068 3066 3064 3062 3060 3058 3056 3055 3053 3051 3049 3047 3045 3043 3041 3040 3038 3037 3036 3035 3035 3035 3035 3035 3034 3034 3031 3031 3041 3046 3042 3042 3044 3045 3047 3051 3053 3055 3056 3058 3059 3062 3064 3068 3072 3077 3082 3086 3086 3088 3091 3094 3097 3098 3100 3103 3105 3108 3109 3110 3113 3113 3114 3116 3119 3123 3124 3127 3131 3131 3131 3131 3131 3132 3134 3135 3135 3137 3137 3138 3139 3140 3142 3143 3144 3144 3144
3068 3066 3064 3062 3060 3058 3056 3054 3052 3050 3048 3046 3044 3042 3040 3038 3037 3035 3034 3033 3032 3031 3031 3031 3030 3030 3029 3025 3029 3041 3041 3037 3038 3038 3040 3044 3047 3050 3052 3053 3055 3057 3059 3061 3065 3068 3073 3078 3081 3083 3087 3089 3091 3094 3095 3097 3100 3101 3104 3106 3108 3110 3107 3110 3114 3117 3120 3122 3125 3129 3127 3127 3128 3127 3129 3132 3133 3133 3134 3135 3136 3138 3140 3141 3142 3142 3142 3142
3066 3064 3062 3060 3058 3056 3053 3051 3049 3047 3045 3043 3041 3039 3037 3035 3033 3032 3031 3030 3029 3028 3027 3027 3026 3026 3023 3021 3029 3036 3034 3033 3034 3033 3037 3042 3044 3048 3050 3052 3054 3055 3058 3060 3063 3066 3070 3074 3077 3081 3085 3086 3089 3092 3093 3095 3097 3098 3102 3102 3103 3103 3102 3106 3112 3114 3117 3119 3123 3125 3124 3124 3125 3125 3127 3129 3131 3132 3133 3134 3135 3137 3139 3140 3141 3141 3141 3141
3064 3062 3060 3057 3055 3053 3051 3049 3046 3044 3042 3040 3038 3036 3034 3032 3031 3029 3028 3027 3026 3024 3024 3024 3023 3022 3018 3019 3026 3030 3030 3031 3032 3034 3038 3040 3041 3045 3049 3051 3052 3055 3057 3059 3062 3065 3068 3071 3072 3076 3080 3084 3088 3090 3091 3092 3093 3095 3096 3096 3097 3099 3100 3105 3109 3111 3114 3117 3120 3122 3122 3122 3123 3124 3126 3128 3129 3130 3132 3133 3134 3136 3137 3139 3139 3139 3140 3140
3061 3059 3057 3055 3052 3050 3048 3046 3043 3041 3039 3037 3035 3033 3031 3030 3028 3027 3026 3025 3023 3022 3021 3021 3020 3018 3016 3018 3023 3026 3026 3027 3029 3032 3034 3036 3038 3043 3047 3049 3050 3053 3056 3059 3061 3063 3066 3068 3069 3072 3077 3081 3084 3085 3088 3089 3089 3090 3090 3091 3094 3096 3100 3104 3105 3108 3112 3115 3117 3119 3119 3119 3120 3122 3125 3127 3128 3129 3130 3132 3133 3134 3136 3137 3137 3137 3138 3138
3058 3056 3054 3052 3049 3047 3045 3043 3040 3038 3036 3034 3032 3030 3028 3027 3025 3024 3023 3022 3021 3020 3019 3018 3018 3015 3014 3017 3020 3022 3022 3022 3024 3026 3029 3032 3034 3039 3044 3045 3048 3051 3054 3057 3059 3061 3063 3064 3066 3069 3073 3077 3079 3082 3084 3082 3081 3084 3086 3088 3092 3095 3098 3101 3103 3106 3109 3112 3114 3116 3117 3117 3118 3121 3123 3125 3126 3127 3129 3130 3132 3133 3134 3135 3135 3136 3136 3137
3056 3053 3051 3049 3046 3044 3042 3040 3038 3035 3033 3031 3029 3028 3026 3024 3023 3021 3020 3019 3018 3017 3016 3016 3016 3013 3012 3015 3017 3018 3018 3018 3020 3022 3025 3028 3030 3035 3039 3043 3047 3049 3052 3055 3056 3058 3060 3061 3064 3067 3070 3071 3073 3074 3073 3072 3074 3079 3083 3087 3090 3093 3096 3098 3101 3104 3106 3109 3111 3113 3114 3115 3116 3119 3122 3123 3124 3126 3128 3129 3131 3132 3133 3133 3134 3134 3135 3136
3053 3051 3048 3046 3044 3042 3040 3038 3035 3033 3031 3029 3027 3026 3024 3022 3020 3018 3017 3016 3015 3015 3014 3013 3012 3011 3011 3013 3015 3016 3015 3015 3017 3019 3022 3024 3026 3031 3036 3040 3044 3046 3048 3050 3052 3055 3056 3058 3060 3061 3060 3060 3062 3065 3066 3071 3076 3080 3084 3086 3089 3091 3093 3096 3100 3103 3105 3107 3109 3111 3112 3113 3114 3117 3120 3121 3123 3124 3126 3127 3129 3130 3131 3132 3132 3133 3134 3135
3051 3048 3046 3044 3042 3040 3038 3036 3033 3031 3029 3027 3025 3024 3022 3019 3017 3016 3015 3013 3012 3012 3012 3011 3009 3008 3010 3012 3012 3013 3013 3013 3013 3015 3017 3020 3023 3027 3032 3037 3040 3042 3043 3045 3049 3052 3054 3055 3052 3049 3051 3055 3061 3066 3069 3074 3078 3081 3084 3086 3088 3090 3092 3095 3098 3101 3104 3106 3107 3109 3111 3111 3112 3115 3117 3119 3121 3122 3123 3125 3127 3128 3129 3130 3130 3131 3133 3134
3049 3046 3044 3042 3040 3038 3036 3034 3032 3029 3027 3025 3024 3022 3021 3018 3016 3014 3011 3010 3010 3010 3009 3009 3008 3006 3008 3011 3011 3011 3011 3011 3012 3013 3014 3017 3020 3024 3028 3032 3034 3036 3038 3043 3047 3051 3052 3048 3044 3047 3053 3060 3065 3068 3071 3074 3077 3079 3082 3084 3087 3089 3091 3094 3097 3100 3103 3104 3106 3108 3109 3109 3111 3113 3115 3117 3118 3120 3122 3124 3125 3126 3127 3128 3129 3130 3131 3133
3046 3044 3042 3040 3038 3036 3034 3032 3030 3027 3025 3024 3022 3021 3020 3018 3015 3012 3009 3005 3006 3008 3006 3006 3006 3004 3005 3008 3010 3010 3009 3009 3011 3012 3013 3016 3018 3021 3024 3028 3029 3032 3037 3042 3044 3047 3045 3040 3041 3050 3056 3061 3065 3068 3071 3074 3076 3078 3079 3082 3084 3086 3090 3093 3096 3099 3101 3103 3104 3106 3107 3108 3110 3111 3112 3114 3117 3119 3121 3123 3123 3124 3125 3126 3127 3129 3130 3131
3044 3042 3040 3038 3036 3034 3032 3030 3028 3026 3024 3022 3021 3019 3018 3016 3014 3012 3009 3004 3002 3005 3005 3003 3004 3003 3003 3006 3009 3009 3007 3008 3009 3010 3011 3014 3017 3020 3023 3025 3027 3031 3036 3037 3038 3039 3038 3037 3044 3052 3055 3060 3064 3066 3070 3073 3074 3075 3077 3079 3080 3084 3088 3090 3093 3097 3099 3102 3103 3105 3106 3106 3108 3109 3111 3113 3116 3118 3120 3121 3122 3123 3124 3125 3127 3128 3128 3129
3042 3040 3037 3036 3034 3032 3030 3028 3026 3025 3023 3020 3019 3018 3016 3014 3012 3010 3008 3004 3000 3001 3002 3001 3001 3001 3001 3004 3006 3006 3006 3007 3008 3009 3010 3012 3017 3020 3022 3024 3027 3030 3032 3034 3035 3036 3037 3040 3046 3051 3055 3059 3062 3064 3067 3070 3071 3072 3074 3076 3078 3082 3086 3089 3093 3096 3098 3101 3102 3103 3104 3104 3105 3107 3109 3111 3114 3116 3117 3118 3119 3121 3123 3125 3125 3126 3127 3128
3040 3037 3035 3034 3032 3030 3028 3026 3025 3023 3021 3019 3017 3016 3014 3012 3011 3009 3006 3003 3000 2998 2998 2998 2998 2998 2999 3002 3003 3004 3005 3005 3006 3008 3009 3011 3016 3019 3021 3023 3026 3028 3030 3033 3035 3036 3039 3042 3045 3049 3053 3056 3059 3061 3064 3066 3069 3070 3071 3073 3078 3082 3085 3089 3093 3096 3096 3097 3098 3099 3102 3104 3104 3105 3107 3109 3111 3113 3114 3116 3117 3119 3121 3123 3123 3123 3124 3125
3037 3035 3033 3031 3029 3028 3026 3024 3023 3022 3020 3018 3016 3014 3013 3011 3009 3007 3005 3003 3000 2998 2997 2996 2997 2997 2998 3001 3002 3003 3004 3004 3006 3007 3008 3010 3013 3017 3021 3022 3023 3026 3029 3033 3035 3036 3039 3042 3045 3048 3051 3054 3057 3058 3060 3065 3068 3067 3068 3073 3078 3082 3084 3087 3090 3093 3093 3094 3095 3096 3097 3101 3103 3104 3106 3108 3109 3110 3111 3113 3115 3117 3119 3121 3121 3121 3122 3123
3034 3032 3030 3029 3027 3026 3024 3023 3022 3021 3019 3017 3015 3014 3012 3010 3008 3006 3005 3004 3001 2998 2996 2996 2997 2996 2997 2999 3001 3002 3002 3002 3006 3007 3007 3009 3011 3015 3018 3020 3022 3024 3028 3033 3034 3034 3037 3041 3043 3046 3049 3052 3053 3053 3057 3063 3064 3063 3068 3075 3078 3081 3083 3085 3089 3091 3091 3093 3094 3093 3093 3095 3098 3099 3104 3107 3108 3108 3109 3111 3114 3115 3117 3118 3118 3119 3120 3121
3032 3030 3028 3027 3025 3023 3023 3021 3020 3019 3017 3016 3015 3013 3011 3009 3008 3006 3006 3005 3001 2998 2997 2996 2996 2996 2997 2998 2999 3000 3001 3002 3005 3007 3009 3009 3010 3012 3015 3018 3021 3024 3028 3031 3031 3032 3035 3038 3040 3044 3047 3048 3048 3051 3057 3062 3062 3064 3071 3076 3077 3081 3083 3085 3088 3089 3090 3092 3091 3089 3089 3092 3093 3095 3100 3104 3105 3107 3107 3109 3111 3113 3114 3115 3115 3117 3119 3120
3029 3027 3026 3025 3023 3022 3021 3020 3018 3017 3016 3015 3014 3013 3011 3009 3007 3006 3006 3005 3000 2997 2997 2996 2996 2996 2997 2997 2997 2998 3001 3003 3004 3007 3010 3010 3010 3011 3014 3017 3021 3024 3027 3029 3030 3033 3036 3037 3040 3044 3044 3044 3046 3053 3058 3061 3062 3066 3072 3075 3077 3081 3082 3085 3087 3087 3089 3089 3086 3085 3085 3088 3092 3094 3095 3099 3103 3104 3105 3106 3109 3110 3112 3112 3113 3116 3117 3118
3027 3025 3024 3023 3021 3020 3019 3019 3017 3016 3015 3014 3013 3012 3011 3009 3007 3007 3007 3003 2998 2997 2996 2996 2996 2996 2997 2997 2997 2998 3000 3002 3003 3006 3008 3010 3011 3012 3014 3017 3020 3023 3026 3027 3029 3032 3035 3038 3041 3041 3041 3043 3049 3054 3057 3060 3064 3069 3071 3073 3076 3079 3081 3084 3084 3086 3087 3084 3081 3081 3082 3083 3089 3092 3091 3092 3095 3097 3099 3103 3106 3108 3109 3109 3111 3113 3114 3115
3026 3024 3022 3021 3020 3018 3018 3017 3016 3015 3014 3013 3012 3011 3010 3009 3008 3008 3006 3001 2997 2996 2995 2995 2996 2996 2996 2997 2997 2998 2999 3001 3003 3004 3006 3008 3010 3012 3014 3017 3019 3022 3024 3026 3028 3030 3032 3035 3037 3038 3040 3045 3050 3053 3056 3060 3065 3068 3068 3071 3075 3077 3080 3082 3082 3083 3083 3078 3075 3077 3080 3081 3083 3086 3087 3088 3091 3093 3095 3098 3101 3103 3104 3105 3108 3111 3112 3114
3025 3022 3020 3019 3018 3016 3016 3016 3014 3013 3013 3012 3011 3010 3009 3009 3007 3005 3002 2999 2997 2996 2995 2996 2996 2996 2996 2996 2997 2997 2998 3000 3001 3003 3005 3006 3009 3010 3012 3014 3016 3019 3021 3023 3026 3028 3029 3030 3032 3036 3040 3043 3047 3050 3055 3059 3063 3065 3065 3068 3072 3075 3078 3080 3079 3078 3076 3074 3073 3074 3078 3079 3077 3078 3082 3085 3089 3092 3094 3096 3098 3099 3101 3103 3105 3108 3110 3112
3024 3021 3019 3017 3016 3014 3014 3014 3013 3012 3012 3011 3010 3009 3009 3009 3006 3002 3000 2999 2998 2996 2996 2996 2996 2995 2996 2995 2996 2998 2998 2999 3000 3002 3004 3005 3007 3009 3011 3013 3014 3016 3018 3020 3023 3026 3027 3028 3031 3035 3038 3040 3044 3046 3049 3052 3055 3058 3060 3062 3066 3070 3075 3077 3075 3074 3072 3071 3072 3073 3076 3076 3075 3076 3079 3083 3087 3090 3092 3095 3097 3099 3100 3101 3103 3105 3108 3110
3023 3021 3018 3016 3015 3013 3012 3012 3011 3010 3010 3010 3009 3008 3008 3007 3003 3000 2998 2998 2997 2996 2996 2996 2995 2994 2994 2994 2996 2997 2997 2998 2999 3001 3003 3004 3006 3007 3009 3011 3013 3015 3018 3020 3022 3024 3026 3026 3027 3030 3033 3036 3039 3041 3044 3049 3052 3055 3058 3062 3064 3066 3070 3072 3070 3070 3070 3070 3071 3072 3073 3072 3072 3075 3078 3082 3086 3088 3091 3094 3097 3099 3100 3101 3102 3104 3106 3108
3023 3020 3017 3015 3014 3012 3011 3010 3010 3009 3008 3008 3007 3006 3006 3003 3000 2998 2997 2996 2995 2995 2994 2995 2993 2992 2991 2991 2993 2995 2996 2997 2999 3001 3002 3003 3004 3005 3006 3008 3011 3014 3017 3019 3021 3023 3025 3024 3025 3028 3031 3034 3037 3040 3046 3050 3053 3055 3059 3062 3062 3063 3067 3069 3068 3067 3067 3068 3068 3068 3069 3069 3070 3074 3076 3080 3084 3086 3089 3093 3096 3098 3099 3099 3100 3102 3104 3106
3022 3019 3017 3014 3013 3012 3010 3009 3009 3008 3007 3006 3005 3004 3002 3000 2999 2998 2996 2995 2994 2993 2992 2992 2991 2989 2987 2988 2990 2992 2995 2997 2999 3000 3001 3003 3003 3003 3004 3006 3009 3012 3015 3017 3019 3022 3023 3023 3025 3028 3031 3033 3036 3040 3045 3048 3049 3053 3057 3056 3057 3063 3067 3067 3066 3065 3065 3066 3066 3065 3066 3067 3069 3072 3074 3077 3081 3085 3088 3092 3094 3095 3096 3097 3098 3101 3103 3105
3022 3019 3016 3014 3012 3011 3010 3008 3007 3007 3006 3005 3003 3001 2999 2998 2997 2997 2995 2994 2993 2992 2991 2990 2989 2987 2986 2986 2988 2991 2994 2996 2998 2999 3000 3002 3002 3002 3003 3005 3009 3012 3014 3016 3019 3021 3023 3023 3024 3027 3029 3032 3036 3040 3044 3046 3048 3051 3052 3052 3058 3065 3066 3064 3064 3064 3064 3065 3064 3063 3064 3065 3067 3070 3073 3076 3080 3084 3088 3091 3092 3093 3094 3095 3097 3100 3102 3104
3022 3019 3016 3014 3012 3011 3009 3007 3006 3005 3005 3003 3001 2999 2997 2996 2995 2995 2994 2993 2992 2991 2991 2989 2987 2986 2985 2986 2988 2990 2993 2995 2998 2999 3000 3001 3000 3000 3002 3005 3008 3011 3013 3017 3019 3021 3023 3024 3024 3026 3028 3031 3036 3039 3042 3044 3047 3049 3050 3053 3059 3062 3061 3061 3063 3062 3062 3064 3063 3062 3063 3063 3064 3067 3070 3074 3079 3083 3087 3088 3089 3090 3091 3093 3096 3099 3101 3102
3021 3019 3016 3013 3012 3010 3009 3007 3005 3004 3003 3001 2999 2997 2996 2994 2994 2993 2992 2991 2990 2989 2989 2987 2986 2986 2985 2987 2989 2991 2993 2995 2998 2999 3000 3000 3000 2999 3001 3004 3007 3009 3013 3016 3018 3020 3022 3024 3023 3025 3028 3031 3034 3036 3037 3040 3043 3047 3050 3053 3056 3058 3058 3059 3060 3060 3059 3061 3062 3063 3064 3063 3063 3065 3068 3072 3077 3081 3083 3084 3086 3088 3090 3092 3094 3096 3098 3100
3021 3018 3015 3013 3010 3008 3007 3006 3004 3003 3001 2999 2997 2996 2994 2993 2991 2990 2990 2989 2988 2988 2987 2986 2986 2986 2986 2987 2989 2991 2994 2996 2997 2999 2999 2999 2999 3000 3001 3003 3005 3009 3013 3015 3017 3019 3022 3022 3022 3024 3027 3029 3030 3031 3032 3035 3038 3042 3046 3049 3050 3054 3056 3057 3058 3058 3057 3058 3061 3064 3066 3063 3062 3065 3068 3071 3075 3078 3080 3082 3084 3087 3089 3091 3093 3095 3097 3099
3021 3018 3015 3012 3009 3007 3006 3004 3003 3002 3000 2997 2996 2994 2993 2992 2990 2989 2989 2989 2987 2987 2986 2985 2985 2986 2986 2987 2989 2991 2994 2996 2997 2998 2998 2998 2999 2999 3000 3001 3004 3009 3013 3015 3017 3019 3020 3021 3022 3023 3025 3026 3028 3029 3031 3034 3038 3041 3044 3046 3047 3050 3053 3055 3057 3056 3055 3056 3058 3061 3064 3062 3061 3065 3068 3071 3074 3076 3079 3081 3083 3085 3087 3089 3092 3094 3096 3098
3021 3018 3015 3012 3009 3007 3006 3003 3002 3001 2999 2996 2995 2993 2992 2992 2990 2988 2988 2987 2986 2986 2986 2985 2985 2986 2987 2988 2990 2992 2994 2995 2996 2997 2997 2997 2997 2998 2999 3002 3005 3009 3013 3015 3016 3018 3020 3021 3021 3022 3023 3025 3027 3030 3033 3036 3039 3042 3044 3045 3047 3049 3051 3053 3054 3054 3054 3055 3056 3058 3060 3061 3061 3064 3067 3070 3073 3075 3078 3080 3083 3084 3086 3088 3091 3093 3095 3098
3021 3018 3015 3012 3009 3007 3005 3002 3000 2999 2998 2996 2994 2993 2991 2991 2989 2987 2987 2986 2986 2985 2986 2985 2985 2986 2988 2989 2991 2993 2994 2994 2995 2995 2995 2996 2997 2998 3001 3003 3006 3010 3013 3014 3016 3018 3020 3021 3020 3020 3022 3025 3028 3031 3033 3036 3038 3040 3042 3044 3045 3047 3050 3052 3053 3053 3053 3054 3055 3056 3058 3060 3061 3063 3066 3069 3072 3074 3077 3080 3082 3084 3085 3088 3090 3092 3094 3096
3021 3018 3015 3012 3009 3007 3004 3002 2999 2997 2996 2994 2993 2992 2991 2990 2989 2988 2987 2987 2986 2986 2986 2986 2987 2988 2989 2990 2992 2994 2995 2995 2994 2994 2995 2996 2996 2998 3002 3004 3006 3010 3011 3013 3015 3017 3018 3019 3019 3019 3021 3024 3028 3030 3032 3033 3035 3037 3039 3042 3044 3046 3049 3051 3052 3052 3052 3053 3053 3054 3056 3058 3061 3063 3065 3068 3071 3074 3076 3079 3081 3083 3085 3087 3088 3090 3092 3094
3021 3017 3015 3012 3010 3007 3004 3001 2999 2996 2995 2994 2992 2992 2991 2990 2989 2988 2988 2988 2987 2987 2988 2988 2988 2989 2991 2992 2993 2994 2995 2995 2994 2994 2994 2995 2996 2999 3001 3003 3007 3010 3010 3012 3015 3017 3018 3017 3018 3018 3018 3021 3024 3025 3027 3030 3032 3034 3036 3040 3042 3045 3048 3050 3050 3051 3051 3052 3052 3052 3054 3056 3058 3062 3064 3067 3070 3072 3075 3078 3080 3082 3084 3085 3086 3088 3090 3092
3021 3017 3015 3012 3010 3007 3004 3001 2999 2996 2995 2994 2992 2992 2991 2990 2990 2989 2988 2988 2988 2988 2989 2989 2990 2991 2992 2993 2994 2994 2994 2995 2994 2994 2994 2995 2996 2999 3000 3003 3007 3008 3010 3011 3014 3017 3017 3017 3017 3018 3018 3020 3022 3023 3026 3029 3030 3031 3033 3037 3040 3043 3046 3049 3049 3049 3050 3052 3051 3051 3052 3054 3056 3059 3062 3065 3068 3071 3074 3076 3079 3081 3082 3083 3084 3086 3088 3091
3024 3020 3016 3012 3010 3008 3005 3002 2999 2997 2995 2994 2993 2993 2992 2991 2990 2990 2989 2989 2989 2989 2990 2990 2991 2992 2993 2993 2993 2993 2994 2994 2994 2994 2994 2995 2996 2998 3000 3004 3006 3007 3010 3012 3014 3016 3017 3017 3018 3019 3020 3022 3023 3024 3027 3028 3029 3030 3033 3036 3039 3042 3045 3047 3047 3048 3050 3051 3051 3050 3051 3052 3054 3057 3060 3063 3067 3070 3073 3075 3077 3078 3080 3082 3083 3085 3088 3090
3025 3022 3019 3015 3012 3009 3006 3003 3000 2998 2996 2995 2994 2994 2993 2992 2991 2991 2991 2990 2990 2991 2991 2992 2992 2992 2993 2993 2993 2993 2993 2994 2994 2994 2995 2996 2996 2998 3001 3004 3006 3008 3011 3013 3015 3016 3017 3018 3018 3019 3020 3022 3023 3024 3026 3027 3029 3031 3034 3037 3040 3042 3043 3045 3046 3048 3049 3050 3050 3050 3051 3052 3054 3057 3059 3062 3065 3068 3071 3073 3075 3077 3078 3080 3082 3084 3086 3088
3025 3023 3021 3018 3015 3012 3008 3005 3002 2999 2997 2996 2995 2995 2994 2993 2992 2992 2992 2992 2992 2992 2993 2993 2993 2994 2994 2994 2994 2994 2994 2994 2994 2995 2996 2996 2996 2998 3002 3004 3006 3009 3012 3014 3016 3017 3018 3018 3019 3019 3019 3020 3022 3023 3025 3026 3028 3031 3034 3036 3039 3041 3042 3044 3046 3048 3049 3049 3049 3049 3050 3051 3053 3056 3059 3062 3065 3069 3071 3073 3074 3076 3077 3079 3081 3083 3085 3086
3026 3023 3021 3019 3017 3014 3010 3007 3003 3000 2999 2997 2996 2996 2995 2994 2993 2993 2993 2993 2994 2994 2995 2995 2995 2995 2995 2994 2994 2994 2994 2994 2995 2995 2996 2997 2997 2999 3003 3005 3006 3009 3013 3015 3016 3017 3018 3018 3019 3019 3018 3020 3022 3023 3024 3025 3028 3031 3033 3036 3038 3040 3041 3042 3044 3046 3048 3048 3048 3048 3049 3050 3053 3056 3059 3062 3066 3068 3070 3071 3073 3075 3076 3078 3080 3082 3083 3085
3028 3025 3022 3020 3017 3014 3011 3008 3005 3001 2999 2998 2997 2997 2997 2996 2995 2994 2994 2995 2996 2996 2997 2997 2997 2996 2995 2995 2995 2995 2995 2995 2995 2995 2997 2997 2998 3000 3004 3007 3009 3011 3013 3015 3016 3017 3018 3019 3019 3018 3018 3019 3021 3022 3024 3025 3028 3030 3033 3035 3037 3038 3040 3041 3043 3045 3047 3047 3047 3046 3047 3049 3052 3055 3058 3061 3064 3066 3068 3069 3071 3073 3075 3077 3079 3080 3082 3083
3030 3028 3025 3022 3019 3015 3013 3010 3006 3003 3001 2999 2998 2998 2998 2997 2996 2996 2996 2996 2997 2998 2998 2998 2998 2997 2996 2995 2995 2995 2995 2995 2995 2996 2997 2998 3000 3002 3003 3007 3010 3011 3013 3015 3017 3018 3019 3019 3019 3019 3019 3020 3021 3022 3024 3026 3028 3030 3031 3033 3034 3036 3038 3041 3042 3044 3045 3047 3047 3047 3047 3049 3051 3054 3057 3060 3062 3064 3066 3068 3070 3071 3074 3076 3077 3079 3081 3082